Location: Peterborough
(44.3000°N, 78.3330°W)
Time: 11:35:08
(UTC-04:00)

Tiangong 2 - Visible Passes

Search period start: 22 June 2018 00:00
Search period end: 02 July 2018 00:00
Orbit: 291 x 296 km, 42.8° (Epoch: 21 June)

Date Brightness Start Highest point End Pass type
(mag) Time Alt. Az. Time Alt. Az. Time Alt. Az.
27 Jun 2.7 04:51:34 10° SSW 04:53:16 16° SSE 04:54:59 10° ESE visible
28 Jun 2.0 04:56:34 10° SW 04:58:46 26° SSE 05:00:58 10° E visible
30 Jun 2.7 03:36:00 16° SE 03:36:00 16° SE 03:37:11 10° ESE visible
01 Jul 1.8 03:40:56 27° SE 03:40:56 27° SE 03:42:53 10° E visible
